Theta_e
297 297 296 296 296 296 296 296 296 296 296 295 295 295 295 295 294 294 293 293 292 292 292 292 292 292 291 291 290 289 288 288 288 288 288 288 288 288 287 287 287 287 286 286 286 285 285 285 285 284 284 284 284 284 284 284 283 283 283 283 283 282 282 282 281 282 284 284 283 282 282 282 282 281 281 282 282 282 282 282 281 281 281 281 280
297 296 296 296 296 296 296 296 296 295 295 295 295 295 294 294 294 293 293 293 292 292 292 292 292 292 291 290 289 289 288 288 288 288 288 288 288 288 287 287 287 287 286 286 285 285 285 284 284 284 284 284 284 284 284 283 283 283 283 283 283 282 282 281 281 281 283 284 283 282 281 281 282 281 280 281 281 281 281 281 281 280 280 280 280
297 296 296 295 295 295 296 296 296 295 295 294 294 294 294 294 293 293 293 292 292 292 292 292 291 291 291 290 289 289 288 288 288 288 288 288 288 288 288 287 287 287 286 286 285 285 284 284 284 284 284 284 284 283 283 283 283 283 283 283 283 282 282 281 281 281 281 282 282 281 281 281 281 281 280 280 280 280 280 280 280 280 279 279 279
296 296 295 295 295 295 295 295 295 294 294 294 294 294 294 293 293 293 292 292 292 292 291 291 291 291 290 290 289 288 288 288 288 288 288 288 288 288 288 288 287 287 286 285 285 284 284 284 284 284 284 283 283 283 283 283 283 283 283 283 282 282 282 281 281 281 280 281 281 281 280 280 281 280 280 280 280 279 280 280 279 279 279 278 278
296 295 295 295 295 295 295 295 294 294 293 293 293 293 293 293 292 292 292 291 291 291 291 291 291 290 290 289 289 288 288 288 288 288 288 288 288 288 288 287 287 286 285 284 284 284 284 283 283 283 283 283 283 283 283 283 283 283 283 283 282 282 282 281 281 280 280 280 281 281 280 280 280 280 279 279 279 279 279 279 278 278 278 278 277
295 295 295 295 295 295 294 294 293 293 293 292 293 293 292 292 292 292 291 291 291 291 291 291 290 290 289 289 288 288 288 288 288 288 288 288 288 288 287 287 286 285 285 284 284 283 283 283 283 283 283 283 283 283 283 283 283 283 283 282 282 282 281 281 281 280 280 280 280 280 280 279 279 280 279 277 278 278 278 278 278 277 277 277 277
295 294 294 294 295 294 294 294 293 292 292 292 292 292 292 292 291 291 291 291 291 291 291 290 290 289 289 289 288 288 288 288 288 288 288 288 287 287 287 286 286 285 284 284 283 283 283 283 283 283 283 283 283 283 283 283 283 283 282 282 282 281 281 280 280 280 280 279 279 278 278 278 277 278 277 276 276 277 276 276 277 276 276 276 276
295 294 294 294 294 294 294 293 292 292 291 291 291 291 291 291 291 291 290 290 290 291 290 290 289 289 289 289 288 288 288 288 288 288 287 287 287 287 287 286 286 285 284 284 283 283 283 283 283 283 283 283 283 283 283 283 283 282 282 282 281 281 280 280 279 279 279 278 278 277 276 276 275 275 276 275 275 276 276 275 276 276 276 276 276
295 294 294 294 294 293 293 292 291 291 291 291 291 291 291 291 290 290 290 290 290 290 290 289 289 289 289 289 288 288 288 287 287 287 287 287 287 287 286 286 286 285 284 283 283 283 283 283 283 283 283 283 283 282 282 282 282 282 282 281 281 280 280 279 279 278 278 277 276 276 275 275 274 274 275 275 275 275 275 275 276 276 276 276 276
295 295 294 294 293 293 292 292 291 290 290 290 291 291 291 291 290 290 290 290 290 290 290 289 289 289 289 288 288 288 288 287 287 287 287 287 287 287 286 286 285 285 284 283 283 283 283 282 282 282 282 282 282 282 282 282 282 282 281 280 280 279 279 279 278 277 276 276 275 275 274 274 274 274 275 275 275 275 275 276 276 276 276 276 277
295 295 295 294 293 293 292 291 291 290 290 290 290 290 290 290 290 290 290 290 290 290 289 289 289 289 288 288 288 288 287 287 287 287 286 286 286 286 286 286 286 285 284 284 283 283 282 282 282 282 282 282 282 282 282 282 282 281 281 280 279 279 278 278 277 276 275 275 275 274 274 274 275 275 275 275 275 275 275 276 276 276 277 277 277
296 296 295 294 293 293 292 291 290 290 290 290 290 290 290 290 290 290 290 290 290 289 289 289 289 289 288 288 288 288 287 287 287 287 286 286 286 286 286 286 286 285 285 284 283 283 282 282 282 282 282 282 282 282 282 282 282 281 280 279 279 279 278 277 276 276 275 275 274 274 275 275 275 275 275 275 275 275 275 276 276 277 277 277 277
297 296 295 294 293 292 292 291 291 290 290 290 290 290 290 290 290 290 290 289 289 289 289 289 289 288 288 288 288 288 287 287 287 287 286 286 286 286 286 286 286 285 285 284 284 283 282 282 282 282 282 282 282 282 282 282 281 281 280 280 279 279 278 276 276 275 274 274 274 275 275 275 275 275 275 274 275 275 275 276 276 276 276 276 276
296 295 295 294 293 292 292 291 291 290 290 289 290 290 290 290 290 290 289 289 289 289 289 289 289 288 288 288 288 288 287 287 287 287 287 286 286 286 286 286 285 285 285 284 284 283 282 282 282 282 282 282 282 282 282 281 281 281 280 280 280 279 277 277 276 275 274 274 275 275 275 274 274 274 274 274 275 275 275 275 275 275 274 274 274
296 295 295 294 293 292 292 292 291 290 290 289 289 290 290 290 290 290 289 289 289 288 288 288 288 288 288 288 288 288 288 287 287 287 287 287 286 286 286 285 285 285 284 284 284 283 282 282 282 282 282 282 282 282 282 281 281 281 280 280 279 278 277 277 276 275 274 274 275 274 274 274 274 274 274 274 274 274 274 274 274 274 274 274 274
295 295 295 294 294 294 293 293 292 291 290 289 289 289 290 290 290 290 289 289 288 288 288 288 288 288 288 288 288 288 288 287 287 287 287 287 287 287 286 285 285 284 284 284 284 283 282 282 282 282 281 282 282 281 281 281 281 280 279 279 278 278 278 277 276 275 275 275 275 274 274 274 274 274 274 274 274 274 274 274 274 274 273 273 273
296 296 295 294 295 295 294 293 293 292 290 289 289 289 290 290 290 290 290 289 289 288 288 288 288 288 288 288 288 288 287 287 287 287 287 287 287 287 286 286 285 285 284 284 284 283 282 282 281 281 281 281 281 281 281 280 279 278 278 278 278 278 278 277 276 276 276 276 275 274 274 274 274 274 274 274 274 274 273 274 274 273 272 272 272
297 296 295 295 295 295 294 294 294 293 291 290 289 289 289 290 290 290 290 289 289 288 288 288 288 288 288 288 288 287 287 287 287 287 287 287 287 287 286 286 286 285 284 284 284 283 282 281 281 281 281 281 281 281 280 279 278 277 278 278 278 278 277 276 276 277 276 276 275 275 274 274 274 274 275 275 274 274 273 273 273 271 271 271 271
296 295 295 295 295 294 294 294 294 293 292 291 290 290 289 289 290 290 290 290 289 288 288 288 288 288 288 288 287 287 287 287 287 287 287 287 287 287 286 286 286 285 285 284 284 283 282 282 281 281 281 281 281 280 278 277 277 277 277 277 277 277 276 276 276 276 276 275 275 275 275 274 274 274 275 275 275 274 273 273 272 270 269 270 270
296 295 295 295 295 294 294 294 294 293 292 291 291 290 289 289 289 290 290 290 289 289 288 288 288 288 288 287 287 287 287 287 287 286 286 286 286 286 286 286 286 285 285 284 284 283 283 282 281 280 280 280 280 279 278 277 277 277 276 276 276 276 275 275 275 275 275 275 275 275 274 274 274 275 275 275 275 274 274 273 272 271 270 269 270
296 295 295 294 294 294 294 294 294 293 292 291 290 289 289 289 289 289 289 290 289 289 288 288 288 288 288 287 287 287 287 287 286 286 286 286 286 286 286 286 286 285 285 284 284 283 282 282 281 280 280 280 279 279 278 277 276 276 276 276 275 274 274 275 275 275 274 275 275 274 274 274 274 275 275 274 274 274 274 273 272 271 271 270 269
296 295 294 294 294 294 294 294 293 292 292 291 290 289 288 288 288 289 289 289 289 289 289 288 288 288 287 287 287 287 287 287 286 286 286 286 286 286 286 286 286 285 285 285 284 283 282 281 281 280 280 280 279 278 277 276 276 276 276 275 274 274 274 274 274 274 274 274 274 274 274 274 274 274 274 274 274 274 274 273 272 271 271 270 269
295 295 294 294 294 294 294 293 292 292 291 291 290 289 288 288 288 288 289 289 288 289 289 289 288 288 287 287 287 287 287 286 286 286 286 286 285 285 285 286 285 285 285 285 284 283 282 281 280 280 280 279 278 277 276 276 276 276 275 274 274 274 274 274 274 274 274 274 274 274 274 274 274 274 274 274 274 273 273 273 272 271 271 271 271
295 295 294 294 294 294 293 293 292 292 291 291 290 290 289 288 288 288 288 288 288 288 288 288 288 288 288 287 287 287 287 286 286 286 286 286 285 285 285 285 285 285 285 285 284 283 282 280 280 279 279 278 277 277 276 276 275 275 274 274 274 274 274 274 274 274 274 274 274 274 273 273 273 273 273 273 273 273 273 273 272 272 271 272 272
295 295 295 294 294 294 294 293 293 292 292 291 291 290 290 289 288 288 287 287 287 287 287 288 288 288 288 288 287 287 286 286 286 286 286 285 285 285 285 284 284 284 284 284 284 283 281 280 279 278 278 277 277 277 276 275 275 275 274 274 274 274 273 273 273 273 273 273 273 273 273 273 273 273 273 273 273 273 273 273 273 272 272 273 273
293 293 293 293 293 293 293 293 293 293 293 292 292 292 291 290 289 289 288 287 287 287 287 287 287 287 288 288 288 287 286 286 286 285 285 285 285 285 284 284 284 284 283 283 283 282 280 279 278 277 277 277 277 276 276 275 275 275 274 274 274 273 273 273 273 273 273 273 273 273 273 273 273 272 272 273 273 273 273 273 273 273 273 273 274
291 291 291 291 291 291 292 292 292 292 292 292 292 292 291 291 290 289 289 288 288 287 287 287 287 287 287 288 288 287 286 285 285 285 285 285 284 284 284 284 284 283 283 283 282 280 279 278 277 277 276 276 276 276 275 275 275 275 274 273 273 273 273 272 272 272 272 272 272 273 273 273 272 272 272 272 272 273 273 273 273 273 273 273 273
291 291 291 291 291 291 291 291 291 291 291 291 291 291 291 291 290 290 290 289 289 289 288 288 288 288 288 288 288 287 286 285 285 284 284 284 284 283 283 283 283 283 282 282 281 279 278 277 276 276 277 277 277 276 275 275 275 274 273 273 273 272 272 272 272 272 272 272 272 272 272 273 272 272 272 272 272 272 272 272 272 273 273 273 273
291 291 291 291 291 291 291 291 291 291 291 291 291 291 291 291 290 290 290 290 289 289 288 288 288 287 287 287 286 285 285 285 284 284 283 283 283 283 283 283 283 282 281 280 279 278 277 277 277 277 277 277 277 276 275 274 274 273 273 272 272 272 272 271 271 271 271 272 272 272 272 272 272 272 272 272 272 271 272 272 272 272 272 272 273
291 291 291 291 291 290 290 290 290 290 290 290 290 290 290 290 290 290 290 290 289 288 288 287 287 286 285 285 285 284 284 284 283 283 283 283 283 283 283 283 282 281 280 279 278 278 277 277 277 276 276 276 275 275 274 274 273 273 273 272 272 272 271 271 271 271 271 271 272 272 272 272 272 272 272 272 272 271 271 271 272 272 272 272 272
291 291 291 291 291 291 290 290 290 290 290 290 290 290 290 290 290 290 290 289 289 288 287 287 286 286 285 285 284 283 283 283 283 282 282 282 283 283 282 282 281 280 279 278 277 276 275 275 275 275 275 275 274 274 274 273 273 273 272 272 272 272 271 271 271 271 271 271 271 271 271 271 272 272 272 272 272 271 271 271 271 271 272 272 272
291 291 291 291 291 291 290 290 290 290 290 290 290 290 290 289 289 289 289 288 288 287 287 286 285 285 285 284 283 282 282 282 282 282 281 282 282 281 281 281 280 279 277 276 275 274 274 274 274 274 274 274 274 273 273 273 273 272 272 272 272 271 271 270 270 270 271 271 271 271 271 271 271 271 271 271 271 271 271 270 270 271 271 272 272
291 291 291 291 291 291 291 290 290 290 290 290 290 290 289 289 289 288 288 287 287 286 286 285 284 284 283 283 282 282 281 281 281 281 281 281 281 281 280 280 279 277 275 275 275 274 274 274 273 273 273 273 273 273 273 272 272 272 272 271 271 271 271 270 270 270 270 270 270 271 271 271 271 271 271 271 271 271 270 270 270 270 271 271 272
291 291 290 290 290 290 290 290 290 290 290 290 290 289 289 289 288 288 287 286 286 285 285 284 283 283 282 281 281 281 280 280 280 280 280 280 280 279 279 278 277 276 275 275 274 274 273 273 273 273 273 273 273 272 272 272 272 271 271 271 271 271 271 270 270 270 270 270 270 270 270 270 270 270 271 271 271 270 270 269 269 270 270 270 271
290 290 290 290 290 290 290 290 290 290 290 289 289 289 289 288 287 287 286 285 285 284 284 283 282 281 281 280 280 279 279 279 279 279 279 278 277 277 276 276 275 275 274 274 274 273 273 272 272 272 272 272 272 271 271 271 271 271 271 270 270 270 270 270 270 270 270 270 270 270 270 270 270 270 270 270 270 270 270 269 269 269 269 270 270
290 290 290 290 290 290 290 290 290 289 289 289 288 288 288 287 287 286 286 285 284 284 283 282 281 280 280 279 279 279 279 279 279 278 278 277 276 276 275 275 275 275 274 273 273 273 272 272 271 271 271 271 271 271 270 270 271 270 270 270 270 270 270 270 270 270 270 270 270 270 270 270 270 270 270 270 270 270 269 269 269 269 269 269 269
290 290 290 290 290 290 290 289 289 289 289 288 288 287 287 286 286 286 285 284 283 283 282 281 280 279 279 278 278 278 278 278 278 278 278 277 276 275 275 275 275 274 274 273 272 272 272 271 271 270 270 270 270 270 270 270 270 270 270 269 269 269 269 270 269 269 269 270 269 269 269 269 269 269 269 270 270 269 269 269 268 269 269 269 269
290 290 290 290 289 289 289 289 289 288 288 288 287 287 286 286 285 284 284 283 282 281 280 280 279 278 278 277 277 278 278 278 278 278 277 277 276 275 274 274 273 273 272 272 271 271 271 270 270 269 269 270 270 270 270 270 270 269 269 269 269 269 269 269 269 269 269 269 269 269 269 269 269 269 269 269 269 269 268 268 268 268 268 269 269
290 290 290 289 289 289 289 288 288 288 287 287 286 286 285 285 284 283 282 281 281 280 279 278 278 277 277 277 277 277 277 277 277 277 276 276 275 274 273 273 272 271 271 271 270 270 270 269 269 269 269 269 269 269 269 269 269 269 269 268 269 269 269 269 269 269 269 269 269 269 269 269 269 269 269 268 268 268 268 268 267 267 268 268 268
289 289 289 289 289 288 288 288 287 287 286 286 285 285 284 283 282 282 281 280 279 278 278 277 277 277 277 277 277 277 277 277 276 276 275 274 273 273 272 271 271 270 270 270 269 269 269 268 268 268 268 269 269 269 269 269 269 269 268 268 268 269 269 269 269 269 269 269 269 269 269 269 269 268 268 268 267 267 267 267 267 267 267 268 268
288 288 288 288 288 287 287 287 286 286 285 285 284 284 283 282 281 280 279 278 278 277 277 277 277 277 277 277 276 276 276 275 275 274 273 272 272 271 271 270 270 269 269 269 268 268 268 268 268 268 268 269 269 269 268 268 268 268 268 268 268 268 268 269 269 269 269 269 268 268 268 268 268 268 267 267 267 267 267 266 266 267 267 267 268
288 287 287 287 286 286 285 285 285 284 284 283 283 282 282 281 280 279 278 277 277 277 277 277 277 277 276 276 275 274 274 274 273 273 272 271 271 270 270 270 269 269 268 268 268 268 268 267 267 268 268 268 268 268 268 268 268 268 268 268 268 268 268 268 268 268 268 268 268 268 268 267 267 267 267 267 267 266 266 266 266 267 267 267 267
287 286 286 285 284 284 283 283 283 282 282 282 281 281 280 280 279 278 277 277 277 277 277 277 276 276 275 274 274 273 273 272 272 272 271 271 271 270 270 269 268 268 268 267 267 267 267 267 267 268 268 268 267 267 267 267 267 267 267 268 268 268 268 268 268 268 267 267 267 267 267 267 267 267 266 266 266 266 266 266 266 266 267 267 267
286 285 285 284 283 283 282 282 281 281 280 279 279 279 279 278 278 277 277 277 277 276 276 275 274 274 273 273 272 272 272 271 271 271 271 271 270 270 269 268 268 267 267 267 267 267 267 267 267 267 267 267 267 267 267 267 267 267 267 267 267 268 268 268 267 267 266 266 266 266 267 267 266 266 266 266 266 266 266 266 266 266 267 267 267
284 283 283 282 282 281 281 280 279 279 278 277 277 277 277 277 277 277 276 276 275 275 274 273 273 273 272 272 272 272 272 271 271 271 271 270 269 268 268 267 267 267 267 267 267 267 267 267 267 267 267 267 267 267 267 267 267 267 267 267 267 267 267 266 266 266 266 266 266 266 266 266 266 266 266 266 266 266 266 266 266 266 266 266 266
282 281 281 280 280 279 279 278 278 277 277 276 276 276 276 276 276 275 275 274 273 273 273 272 272 272 272 272 272 272 272 271 271 270 270 269 268 268 268 268 268 267 267 267 267 267 267 267 267 267 267 267 267 267 267 267 266 266 266 266 266 266 266 266 266 266 266 265 265 266 266 266 266 266 266 266 266 266 266 266 266 266 266 266 266
280 279 279 279 278 278 278 277 277 276 276 276 275 275 274 274 274 273 273 273 272 272 272 272 272 271 271 271 271 271 271 271 270 270 269 269 268 268 268 268 268 268 268 267 267 267 267 267 267 267 267 267 267 266 266 266 266 266 266 266 266 266 265 265 265 265 265 265 265 265 265 266 266 266 266 266 266 266 266 266 266 266 266 266 266
279 278 278 278 278 277 277 276 276 275 275 274 274 273 273 273 272 272 272 272 271 271 271 271 271 271 271 271 271 270 270 270 269 269 269 268 268 268 268 268 268 268 268 267 267 267 267 267 267 267 267 267 266 266 266 266 266 265 265 265 265 265 265 265 266 266 266 266 266 266 266 266 266 266 266 266 266 266 266 265 265 265 266 266 266
278 278 277 277 277 276 276 275 275 274 274 273 273 273 272 272 271 271 271 271 271 271 271 271 271 271 271 270 270 270 269 269 269 269 268 268 268 268 268 268 268 268 268 267 267 267 267 267 267 266 266 266 266 266 266 266 266 266 266 266 266 266 266 266 266 266 266 266 266 266 266 266 266 266 266 266 266 266 265 265 265 265 265 265 266
277 277 276 276 275 275 274 274 274 273 273 273 272 272 272 271 271 271 271 271 271 271 271 270 270 270 270 270 269 269 269 269 268 268 268 268 268 268 268 268 267 267 267 267 267 267 267 266 266 266 266 266 266 266 266 266 266 266 266 266 266 266 266 266 266 266 266 266 266 266 266 266 266 266 266 266 266 266 265 265 265 265 265 265 265
276 275 275 275 274 274 273 273 272 272 272 272 272 271 271 271 271 270 270 270 270 270 270 270 270 270 269 269 269 269 268 268 268 268 268 267 267 267 267 267 267 267 267 267 267 267 267 267 267 267 267 267 267 267 267 267 267 266 266 266 266 266 266 266 266 266 266 265 265 265 266 266 266 266 266 266 266 265 265 265 265 265 265 265 265
Wind_Speed
31 31 30 29 27 26 25 23 22 21 19 18 16 15 14 13 11 10 8 6 5 3 2 0 2 5 6 8 9 9 9 9 9 10 10 10 11 11 11 11 12 12 12 13 14 14 14 14 15 15 15 16 17 17 18 19 21 22 23 25 26 26 27 29 32 38 41 41 42 44 44 44 45 44 44 46 45 45 45 44 43 43 42 42 40
32 31 30 30 29 28 26 25 24 23 21 20 18 17 16 14 12 10 9 7 6 5 3 2 2 4 6 8 9 9 9 9 9 10 10 10 11 11 12 12 13 13 13 14 14 14 14 14 15 15 16 16 17 18 19 20 22 23 24 26 27 28 29 30 32 37 42 44 44 45 45 44 45 45 45 45 46 45 45 44 43 42 40 40 39
33 32 31 31 30 29 27 26 26 24 23 21 20 19 17 15 13 12 10 9 8 6 5 3 3 5 6 8 8 8 9 9 9 10 10 11 11 12 13 13 13 13 13 13 13 13 13 14 15 15 16 16 17 18 20 22 23 25 26 27 29 30 30 31 33 36 41 45 45 45 45 45 46 46 45 45 45 45 45 45 43 41 39 37 37
34 33 33 32 31 31 29 28 27 26 24 23 22 20 18 16 14 13 12 11 9 8 6 5 4 5 6 7 8 8 9 9 9 10 10 11 12 12 13 13 13 13 12 13 13 13 13 14 15 15 16 17 18 20 21 23 24 26 28 29 30 32 33 33 34 35 39 44 46 45 45 46 46 46 46 45 45 44 45 46 45 42 39 36 35
36 35 34 34 33 32 31 30 29 27 26 25 23 21 19 17 15 14 13 12 11 9 7 6 5 5 6 7 8 8 9 9 10 11 11 12 12 12 12 12 12 12 12 13 13 13 14 14 15 16 17 18 19 21 22 24 26 27 29 31 32 33 35 35 36 36 38 42 46 46 46 46 46 46 45 44 46 47 47 45 44 42 40 37 36
37 36 36 35 34 34 33 32 31 29 27 26 24 22 19 17 16 15 14 13 12 10 8 7 6 5 6 7 8 8 9 10 11 12 13 13 12 12 12 12 12 12 12 13 14 14 15 15 16 17 18 19 20 22 23 25 26 28 30 32 33 35 36 37 37 38 39 42 44 46 47 46 46 46 44 43 45 47 46 46 44 42 41 40 40
38 38 37 36 36 35 35 33 32 30 28 27 24 22 20 19 18 17 16 14 12 11 9 8 6 6 7 7 8 9 9 10 12 13 13 13 12 12 12 12 12 12 13 14 14 15 16 16 17 18 18 20 21 22 24 26 27 29 30 32 34 35 37 37 38 38 39 41 42 44 45 45 43 45 45 43 43 43 42 44 46 45 43 42 43
40 39 39 38 37 36 35 34 32 31 29 27 25 23 21 20 19 18 17 15 13 12 10 8 7 7 7 7 8 9 10 11 13 14 14 13 13 13 13 13 13 13 13 14 15 15 16 17 17 18 19 20 21 23 25 26 28 30 31 33 34 35 36 37 37 37 38 39 40 41 42 43 42 44 44 42 41 42 40 41 46 47 45 44 44
41 41 40 40 38 36 35 35 33 32 31 29 27 25 23 22 20 19 17 16 14 13 11 9 8 8 8 8 8 9 11 12 13 14 15 14 14 13 14 14 14 14 14 14 15 16 17 17 17 18 19 20 21 23 25 27 29 30 32 33 34 35 35 35 35 36 37 38 39 39 41 43 42 42 43 41 41 43 43 43 47 49 47 45 44
43 42 42 40 38 37 37 36 35 34 32 30 28 26 24 23 21 20 18 16 15 14 12 10 9 9 8 7 8 9 11 12 14 15 16 15 15 14 15 15 14 14 14 14 15 16 17 17 18 18 19 20 21 23 24 27 28 30 31 32 32 33 33 33 34 34 35 36 37 38 41 44 43 40 41 43 42 44 45 45 47 49 49 49 48
44 44 42 40 39 38 38 38 36 35 34 31 29 27 26 24 23 21 19 18 17 15 13 11 10 9 8 8 9 10 11 12 14 15 16 16 16 15 15 15 15 15 15 15 16 16 17 18 18 18 19 20 21 23 25 27 28 29 30 30 30 30 30 31 32 32 32 33 36 37 38 42 43 41 41 44 44 45 46 46 47 49 48 50 50
45 44 42 41 41 40 40 39 38 37 35 33 31 29 27 26 24 23 22 20 19 17 14 13 12 10 10 9 9 10 11 12 13 15 16 16 17 17 16 16 16 16 17 17 17 18 18 18 18 19 20 21 22 24 25 27 29 29 30 29 29 29 28 27 26 27 28 31 34 37 37 40 43 42 42 43 44 46 47 47 47 47 46 46 45
46 45 44 43 43 42 41 40 39 38 36 34 32 30 29 27 26 25 23 21 20 18 16 14 13 12 11 10 11 11 11 12 13 14 15 16 17 18 18 18 18 18 19 19 19 19 19 20 19 20 21 21 23 24 26 27 29 29 30 30 30 30 29 26 24 24 26 28 32 35 36 37 41 42 41 41 43 45 47 47 44 42 42 41 40
47 47 46 44 44 43 42 41 40 39 38 36 34 32 30 29 27 26 24 23 22 20 17 16 15 14 13 12 12 11 11 12 12 14 15 16 17 19 19 20 20 20 21 21 22 21 21 21 21 21 22 22 23 25 26 27 29 30 32 32 33 32 31 30 29 28 26 26 29 34 36 36 38 40 39 38 39 42 43 44 44 42 42 42 41
49 49 47 46 45 44 42 42 41 40 39 37 36 34 32 31 29 28 27 25 23 20 19 18 17 16 15 14 13 12 12 12 12 13 15 16 18 19 20 21 21 22 23 23 23 23 22 22 23 22 23 23 24 26 27 28 30 32 33 33 33 32 32 31 31 29 27 27 30 33 34 33 33 35 36 36 38 39 40 42 43 42 41 41 39
50 50 49 48 46 44 43 43 41 41 41 39 38 36 35 33 31 30 28 27 25 22 21 21 19 18 18 16 15 14 13 13 12 13 15 16 18 19 20 21 22 23 24 24 24 24 24 24 24 24 24 24 25 26 26 28 30 31 32 32 32 32 32 30 28 28 28 30 30 29 29 30 30 32 34 34 36 37 38 39 38 37 37 38 37
51 51 50 49 46 45 45 43 41 42 42 41 40 38 36 35 33 32 30 29 27 25 24 22 21 21 21 19 18 16 15 15 13 13 15 17 19 20 20 21 22 23 24 25 25 25 25 25 24 24 25 25 25 26 26 26 27 28 30 32 33 34 33 30 29 29 29 29 29 28 29 30 31 32 32 32 32 31 33 35 34 33 32 33 34
51 52 50 48 46 46 45 42 41 42 43 41 40 39 38 37 35 33 32 30 28 26 25 24 23 24 24 22 21 19 18 17 16 15 15 17 19 20 20 21 22 23 24 25 26 26 26 25 25 25 25 25 26 26 24 23 24 27 30 32 33 34 32 31 32 32 30 29 28 28 28 29 30 31 31 30 29 27 27 29 29 28 27 27 29
49 49 47 46 46 46 43 41 42 43 42 40 39 39 39 38 36 34 32 31 30 28 27 26 26 27 26 25 24 22 20 19 19 17 16 17 19 20 20 21 22 23 24 25 27 27 27 27 26 25 25 26 25 23 21 21 24 27 29 31 33 33 31 31 32 32 31 30 29 29 29 30 30 31 30 28 28 26 25 25 24 23 23 24 26
43 43 42 43 44 43 42 42 43 42 40 38 38 39 39 38 37 35 33 32 31 30 29 29 29 29 28 27 27 25 23 23 22 20 18 18 19 20 21 21 22 23 25 26 27 28 28 28 26 25 25 25 24 22 21 20 22 25 27 29 30 30 29 30 31 30 29 29 29 30 30 30 29 29 28 28 28 27 25 24 22 21 22 24 25
36 37 38 39 40 40 40 41 41 39 37 37 37 38 39 39 38 37 35 34 33 33 32 32 32 31 31 30 30 28 27 26 25 23 21 19 19 21 22 22 22 24 25 27 27 28 28 28 27 26 26 25 24 23 21 20 21 24 27 27 26 26 27 29 29 27 28 28 29 29 29 28 27 27 28 28 28 28 27 25 22 21 20 22 24
29 32 34 36 37 37 38 39 38 37 36 36 36 37 38 39 40 39 37 36 35 35 34 34 34 33 33 33 33 31 30 29 27 25 23 21 20 21 23 23 23 24 26 27 28 28 28 28 27 27 26 25 24 22 21 20 22 24 25 24 24 24 26 27 27 26 27 27 28 28 28 28 27 26 27 28 28 28 27 25 24 23 21 21 22
25 28 30 32 33 34 35 35 35 35 34 34 35 35 36 39 40 41 40 39 38 37 37 37 37 36 36 36 36 35 33 32 30 28 25 23 22 22 23 24 24 25 27 28 28 29 29 28 27 26 26 25 23 21 21 22 24 24 23 23 23 24 26 25 25 25 26 26 27 27 27 27 27 27 27 28 28 27 26 25 24 24 23 22 22
22 25 26 27 29 30 30 31 31 32 32 33 34 35 36 38 40 41 42 41 41 40 39 39 39 40 40 39 39 37 36 34 33 30 28 26 24 24 24 24 25 26 27 28 29 29 29 28 26 26 25 23 22 22 23 23 23 22 22 23 23 24 25 24 24 25 25 25 26 26 25 25 26 26 27 27 26 26 25 25 24 24 24 24 24
18 19 21 22 24 24 25 27 28 29 30 31 33 34 35 36 38 40 42 43 43 43 42 42 42 42 42 42 41 40 38 36 35 33 30 28 27 25 25 25 25 26 27 28 29 30 30 28 26 25 23 21 23 25 25 23 21 21 22 23 24 24 23 23 24 24 24 24 24 24 24 24 24 25 26 26 25 25 25 25 25 24 25 25 25
12 14 16 17 19 20 22 23 25 26 28 29 31 32 33 34 36 37 39 41 42 43 43 43 44 44 45 45 44 42 39 38 37 35 32 31 29 27 26 26 26 26 27 27 28 29 30 28 25 23 22 23 25 25 24 23 22 22 22 23 23 23 23 23 23 23 23 23 23 23 23 23 23 24 24 25 24 25 26 27 26 26 27 27 28
11 13 15 16 17 19 20 21 23 24 26 28 29 31 32 33 34 36 37 39 40 41 42 43 44 46 46 46 47 44 40 38 37 36 33 32 30 28 27 27 26 26 27 27 27 28 29 27 24 23 24 25 25 23 23 24 24 22 22 22 22 22 22 22 22 23 22 22 21 21 22 22 22 23 24 24 24 24 25 26 27 27 28 28 29
13 15 16 17 19 19 20 22 23 24 25 27 28 30 31 32 34 35 35 36 37 39 40 42 43 44 45 45 46 44 40 39 38 35 33 32 31 29 28 27 27 27 27 27 27 28 28 27 26 25 26 26 25 22 21 22 23 22 21 21 21 21 21 21 21 21 21 21 21 21 21 21 21 23 24 24 24 24 24 25 26 27 28 29 30
16 18 19 20 21 22 23 24 25 26 27 28 29 31 32 33 34 35 36 37 39 40 41 42 43 43 43 43 42 41 40 39 36 34 33 32 31 30 29 28 28 27 27 26 27 28 29 28 28 28 28 27 26 23 21 21 21 21 20 20 21 21 20 20 20 20 20 21 21 21 21 22 22 23 24 24 24 24 24 24 25 26 27 28 29
18 19 19 20 21 22 24 25 26 28 29 31 32 33 35 36 37 38 39 40 40 41 41 42 42 42 43 42 41 40 39 38 36 35 34 33 31 31 30 29 28 27 26 26 27 28 28 28 29 29 28 28 27 25 23 22 21 21 20 20 21 21 20 20 20 20 20 21 21 21 22 22 23 23 24 25 25 25 24 24 25 25 26 28 29
19 20 20 22 23 23 25 26 27 28 30 31 33 35 36 37 38 39 40 41 41 41 41 41 41 41 42 41 40 39 38 38 37 35 34 32 32 32 30 29 29 28 26 24 25 26 28 29 30 30 28 28 28 26 24 23 23 22 21 20 20 20 20 20 20 20 20 20 21 22 22 22 23 23 24 24 25 26 25 25 25 25 26 26 28
22 23 23 25 25 26 28 29 30 31 32 32 33 34 35 36 37 37 38 38 38 38 38 38 38 39 39 39 39 38 37 36 36 35 33 32 32 31 29 28 27 26 23 21 23 27 30 32 32 31 30 30 29 27 25 24 24 23 22 22 21 20 20 20 20 20 20 21 21 22 22 22 22 23 23 24 25 25 26 26 26 26 26 26 27
25 25 26 27 27 29 30 31 32 34 34 34 33 33 33 34 34 34 34 34 35 34 34 34 34 35 36 37 38 37 35 34 34 33 33 32 30 29 29 28 26 22 21 23 28 32 34 35 34 32 32 31 30 27 25 24 24 24 23 23 22 21 20 21 21 20 20 21 21 22 22 23 23 23 23 23 24 25 25 26 26 26 26 27 27
27 27 27 28 29 31 32 33 34 35 34 34 33 33 32 31 31 31 31 31 32 32 32 31 31 32 34 35 36 36 34 33 32 31 30 30 29 28 27 27 26 24 24 27 31 34 35 35 33 32 33 32 30 26 25 24 24 24 23 23 22 21 21 21 21 21 20 21 21 22 22 23 23 23 24 23 24 24 25 25 25 25 26 27 27
29 29 30 30 31 32 33 34 34 34 34 33 32 31 30 30 29 29 29 29 29 30 29 29 28 30 32 33 33 33 32 30 29 28 27 27 27 26 26 27 28 29 29 30 32 33 34 34 33 33 34 33 29 26 25 25 24 24 24 24 23 22 22 21 21 21 21 21 22 22 22 22 22 23 24 24 24 24 24 24 25 24 25 26 27
30 30 31 31 32 33 33 34 33 33 33 32 31 30 30 29 29 29 28 28 29 28 28 27 27 28 29 30 29 29 28 28 28 28 27 27 26 26 27 30 31 32 33 34 33 32 32 32 32 34 34 32 28 26 25 25 25 24 24 24 23 22 22 22 22 22 22 22 22 22 22 23 22 23 24 24 24 24 24 24 24 24 24 25 25
30 30 31 31 32 32 32 32 32 32 32 31 30 30 29 28 28 28 28 28 28 27 27 26 25 25 26 25 26 26 27 28 28 28 28 27 27 27 29 31 32 33 34 34 33 32 31 31 31 32 33 31 27 26 26 25 25 24 24 24 23 23 23 23 22 22 22 22 22 23 23 23 23 23 24 24 24 23 23 23 24 23 23 23 24
30 31 31 31 31 31 31 31 31 31 31 30 29 28 28 27 27 27 26 26 25 25 24 24 23 23 23 23 24 26 27 27 28 28 27 27 27 27 28 30 31 32 32 32 32 32 32 31 30 30 30 29 27 26 26 25 25 24 24 24 23 23 23 23 23 22 23 23 23 23 23 24 24 24 24 24 24 23 23 22 23 23 23 23 23
30 30 30 30 29 29 29 29 29 29 29 28 27 27 26 26 25 25 24 23 22 22 21 21 21 21 21 22 24 25 26 26 27 27 27 27 26 26 27 28 28 29 29 30 30 30 30 30 29 29 28 27 26 26 26 24 24 24 24 24 24 23 23 23 23 22 23 23 24 24 24 24 24 24 24 24 23 22 22 22 22 22 23 23 23
29 29 29 29 29 29 29 29 28 28 27 26 26 25 24 24 23 22 21 20 20 19 19 19 19 20 21 22 23 24 25 25 25 25 26 26 26 25 25 26 26 26 26 26 27 27 27 27 26 26 26 26 26 26 25 24 23 23 24 24 24 24 24 23 23 23 23 24 24 25 25 25 25 25 24 24 22 21 20 21 21 21 21 22 22
27 27 28 28 28 28 27 27 26 25 24 24 23 22 22 21 21 19 18 18 17 17 18 19 19 20 21 22 22 22 24 25 25 25 25 24 23 22 22 23 23 23 24 24 24 24 25 25 24 24 24 24 24 24 23 23 22 23 24 24 25 25 25 24 23 23 24 24 25 26 25 25 25 25 24 23 21 20 19 19 20 20 20 20 20
26 26 26 26 26 25 25 24 23 22 21 20 19 19 19 19 18 18 17 16 17 17 18 19 19 20 21 21 21 22 24 25 25 24 23 21 20 19 19 20 21 21 21 21 21 22 23 23 23 23 23 23 23 22 21 22 22 23 24 25 25 25 25 25 24 23 24 25 25 25 25 24 24 24 23 22 20 19 18 18 19 19 19 19 18
25 25 25 25 24 23 21 21 20 19 18 17 17 16 17 17 17 16 16 17 17 18 19 19 20 20 21 21 22 21 21 21 21 21 21 21 20 18 17 17 18 18 18 18 19 19 21 21 21 21 22 22 21 21 21 21 23 24 25 25 26 25 25 25 24 23 24 25 25 25 24 24 23 23 22 20 19 18 18 18 18 18 17 17 17
23 23 23 22 21 20 19 18 17 16 16 15 15 15 15 15 16 16 17 18 18 19 19 19 20 20 20 19 19 18 17 17 17 17 18 19 18 17 15 14 14 15 15 16 16 17 18 19 19 20 20 20 20 21 21 22 23 24 24 25 25 25 24 23 23 23 23 24 24 23 23 23 22 21 20 19 18 18 18 17 17 17 16 16 15
19 19 19 19 19 18 17 16 15 15 14 13 13 14 15 15 16 17 17 18 18 19 19 19 18 17 16 16 15 15 14 15 15 15 15 15 14 13 13 12 13 13 14 14 15 16 16 17 18 18 19 19 19 20 21 21 22 23 23 24 24 24 22 22 22 22 23 23 23 22 22 22 21 20 19 18 17 18 18 17 16 16 16 15 14
16 16 16 16 16 15 15 15 14 14 14 14 14 15 15 16 17 17 17 18 18 17 17 16 15 14 13 13 13 13 13 13 13 12 12 12 12 12 12 12 13 13 13 13 14 15 15 16 17 18 18 18 18 19 20 20 21 21 22 22 23 22 21 21 21 21 21 21 21 21 21 20 19 18 17 17 17 17 17 17 16 15 15 14 14
15 15 15 15 15 15 15 14 14 14 14 14 15 15 15 16 16 17 17 16 15 14 13 13 12 11 11 11 11 11 11 11 11 11 11 11 11 12 13 13 13 13 13 13 14 15 15 16 17 17 18 18 18 18 19 19 20 20 21 21 21 21 20 20 20 20 19 19 20 20 20 20 19 17 17 16 16 17 17 16 16 15 15 13 13
15 15 15 15 15 15 15 14 14 14 14 15 15 15 15 15 15 14 14 13 12 11 11 10 10 10 10 10 10 11 11 11 11 11 11 11 12 12 13 14 14 14 13 13 13 14 15 16 16 17 18 18 18 18 18 18 19 19 19 19 20 20 19 20 20 19 19 19 19 20 20 20 19 17 17 16 16 16 17 16 15 15 14 13 12
15 15 15 15 15 15 15 15 15 15 15 15 15 14 14 13 13 12 11 11 10 10 10 10 10 10 10 10 11 11 11 10 10 10 11 11 12 12 13 14 14 14 14 13 14 14 15 16 17 17 17 18 18 18 18 17 18 18 18 19 19 20 20 20 20 19 19 19 20 20 20 20 19 18 17 17 17 17 17 16 15 15 15 14 12
14 14 14 15 15 15 15 15 15 15 15 14 14 13 12 12 11 11 11 10 10 10 11 11 11 11 11 11 11 11 11 10 10 10 11 11 12 13 14 14 14 15 15 14 14 14 14 15 16 16 16 17 17 17 17 18 18 18 19 20 20 20 21 21 20 20 20 20 20 20 20 20 19 18 17 17 17 17 16 16 16 15 15 14 13
13 14 14 14 14 14 14 14 14 13 13 12 12 11 11 11 11 11 11 11 11 11 11 11 11 11 12 11 11 11 11 11 11 12 12 13 13 14 14 14 14 14 14 14 13 13 14 14 15 15 16 17 18 18 19 19 19 20 21 21 21 22 22 22 22 21 21 21 21 21 21 20 20 19 18 17 17 17 17 17 16 16 15 15 13
Wind_Direction
199 199 198 199 199 197 196 198 200 203 202 200 199 198 200 203 203 200 193 189 187 183 183 348 354 350 349 346 343 341 340 339 339 340 341 342 343 343 341 341 340 338 337 336 335 334 334 333 333 332 332 331 330 330 330 330 331 332 332 332 330 328 326 322 318 319 323 326 323 320 321 323 321 320 320 320 321 322 323 324 324 323 322 321 321
201 201 201 200 200 201 202 203 205 206 204 202 201 203 205 206 205 202 199 201 202 203 216 259 315 332 336 337 336 334 333 333 334 335 336 336 336 337 337 337 336 334 333 331 330 329 329 329 329 328 327 327 327 326 326 328 328 329 330 329 328 327 325 322 319 318 320 323 323 319 319 321 319 319 320 320 321 322 322 324 324 324 323 321 320
204 203 203 203 202 204 207 208 209 208 207 205 205 207 209 208 206 205 206 209 210 213 224 250 287 313 324 328 329 328 327 328 329 329 329 330 331 333 333 332 330 328 325 323 322 322 324 324 324 324 323 322 323 323 324 325 326 327 328 328 327 325 324 321 319 317 317 320 321 318 318 319 319 319 321 322 322 323 323 324 324 324 325 324 323
206 205 205 205 206 208 210 211 212 211 209 208 209 210 211 210 208 208 210 213 215 220 231 248 271 296 314 322 324 322 321 323 324 324 325 327 329 329 327 324 322 320 317 316 316 317 319 320 319 320 320 319 320 320 321 323 324 326 326 326 325 324 323 320 318 316 314 316 318 317 317 318 319 319 321 322 322 323 324 324 325 327 328 329 328
208 207 207 208 209 211 212 214 214 212 211 211 212 213 213 212 211 211 213 217 220 224 234 248 263 287 308 316 317 315 317 320 321 323 324 324 324 321 318 316 313 313 312 311 312 314 314 316 317 317 317 318 318 319 320 321 323 324 325 325 323 322 321 319 318 317 315 316 317 317 317 319 319 319 322 324 323 324 325 326 328 329 330 331 331
209 209 209 211 212 213 214 215 215 214 213 214 214 215 214 214 214 214 216 219 223 228 236 248 263 286 303 310 311 311 315 319 320 321 321 318 316 313 310 309 309 309 309 308 308 310 312 313 315 315 316 317 317 318 319 321 322 323 323 323 322 321 320 320 319 318 317 317 316 317 318 319 320 320 323 326 327 326 327 328 328 329 331 332 331
210 211 212 213 214 216 216 217 216 216 216 216 216 216 215 215 215 215 217 220 225 232 240 249 262 281 296 303 307 310 315 318 319 317 314 311 309 307 306 305 306 306 305 306 306 307 309 310 312 314 315 316 316 317 318 320 321 322 322 322 321 321 320 319 319 318 318 316 316 317 318 319 321 321 324 328 330 329 329 327 326 327 328 328 327
212 212 214 215 216 217 218 219 218 218 217 217 217 216 216 216 215 216 219 223 228 234 242 249 260 276 290 298 303 310 315 316 316 313 309 306 303 303 303 302 303 303 303 303 303 304 305 307 310 312 313 314 315 316 318 319 321 321 321 321 321 320 319 319 318 318 316 315 316 317 319 320 322 323 326 329 329 327 328 324 321 322 323 323 322
213 214 215 216 217 218 219 220 219 219 219 218 217 218 218 217 216 218 221 224 229 236 242 248 258 270 281 293 301 309 313 315 314 310 307 304 301 300 301 300 300 301 300 301 301 301 303 304 307 310 311 313 314 315 318 319 319 320 321 320 319 319 318 317 317 317 317 317 318 320 321 321 320 323 326 327 325 323 324 322 319 319 320 319 318
215 216 217 218 218 219 220 221 220 220 220 219 219 219 219 218 218 220 222 225 232 238 242 246 256 267 276 287 298 306 311 313 314 312 308 304 299 298 297 297 299 299 299 300 300 300 301 302 305 307 309 311 313 315 317 317 318 319 319 319 318 317 315 315 316 318 320 320 320 321 319 317 319 323 323 323 322 321 322 321 318 317 318 316 315
217 218 219 219 219 220 222 222 222 222 221 220 220 220 220 219 219 221 224 229 235 238 241 245 252 262 270 282 292 301 309 314 317 317 312 305 299 296 296 298 300 301 302 302 301 300 300 301 304 306 307 310 312 314 315 316 317 318 317 316 314 312 313 316 319 321 321 318 316 315 312 313 319 323 321 320 320 319 319 319 316 315 314 311 311
219 220 221 221 221 221 222 223 223 223 223 222 222 222 221 220 221 224 227 231 236 238 240 243 248 256 264 274 287 296 306 315 320 321 318 312 305 301 302 303 305 306 306 305 304 302 301 301 303 305 307 310 312 314 315 316 317 317 316 314 311 311 316 320 319 316 313 309 308 310 312 316 319 319 317 316 316 316 316 315 315 315 314 310 309
222 223 222 222 223 223 223 224 225 226 225 225 224 223 222 223 225 228 229 231 235 237 238 241 246 252 259 269 280 290 303 314 321 323 324 322 316 310 309 309 309 310 309 308 306 303 301 302 303 305 308 310 313 314 315 316 316 315 313 311 311 316 323 323 315 308 306 307 310 313 315 314 312 311 311 312 313 313 314 314 314 313 311 309 307
224 224 223 224 225 224 225 226 228 228 227 226 225 224 225 227 228 229 229 232 235 237 239 242 244 249 256 264 273 284 298 309 317 323 326 326 323 319 316 313 312 313 311 309 306 303 302 302 303 305 307 310 312 312 314 315 314 313 313 314 318 322 324 321 318 315 314 312 309 306 305 306 307 308 311 312 310 309 308 307 306 304 303 302 301
226 226 225 226 226 226 227 229 229 230 228 227 227 226 227 230 230 230 230 233 236 237 239 241 243 247 253 259 267 277 289 298 308 317 323 325 324 323 322 318 315 313 312 309 306 303 302 301 302 304 306 309 311 311 313 314 313 315 317 320 322 320 318 319 319 318 314 308 304 303 305 309 310 309 309 307 304 302 300 298 298 299 301 302 303
228 229 228 227 228 228 230 230 231 231 230 229 228 228 230 231 231 231 231 232 234 236 238 241 244 248 251 255 261 269 278 286 295 307 314 318 320 322 323 321 318 315 312 309 305 302 300 299 300 302 304 307 310 311 312 314 316 318 319 318 317 315 316 320 319 314 310 310 312 313 314 314 312 309 308 306 304 303 301 299 300 302 306 308 311
233 232 230 230 230 232 232 232 233 234 232 230 230 231 233 233 232 232 232 232 234 237 241 244 245 247 249 253 257 263 270 276 284 294 303 308 312 317 320 319 319 317 312 308 305 301 298 297 298 300 303 306 309 310 314 318 318 317 315 314 314 315 318 320 316 313 315 317 320 321 319 318 317 315 315 313 312 310 306 305 307 310 313 315 315
236 235 233 233 234 234 234 235 237 238 235 233 233 235 235 235 234 234 234 235 237 240 242 244 244 247 250 252 255 260 266 271 276 283 292 299 304 310 313 315 317 316 312 308 304 300 297 296 296 299 303 306 309 313 317 318 314 312 312 312 313 315 319 318 315 316 320 321 322 323 322 322 321 319 319 319 319 318 314 312 315 318 319 318 315
240 238 238 238 238 237 237 239 242 242 240 238 237 238 238 237 236 236 236 237 238 240 242 243 245 247 249 251 254 258 263 268 272 277 284 292 298 303 308 311 313 314 311 307 304 300 297 296 297 299 303 305 310 315 315 311 309 310 310 310 311 315 317 315 315 319 322 322 324 325 325 326 324 322 322 323 324 326 324 322 320 320 317 313 313
244 243 243 242 241 241 241 243 245 246 246 244 242 240 240 238 238 237 238 238 239 240 241 244 246 248 249 251 254 258 262 266 269 274 279 286 292 298 303 307 310 310 309 307 304 300 297 297 297 299 301 305 309 311 309 307 307 307 305 306 310 314 313 311 314 319 320 321 324 325 326 326 325 324 325 327 330 333 333 329 324 318 314 309 309
249 248 247 246 245 244 244 246 249 251 251 249 245 242 240 240 240 240 240 241 241 241 243 246 248 249 250 252 254 257 259 262 265 270 275 280 286 291 297 303 306 306 306 305 303 300 298 297 296 298 301 304 306 307 308 306 302 300 302 306 308 308 306 308 313 316 317 319 323 323 323 324 326 329 331 333 336 337 335 333 329 326 324 319 315
251 250 248 247 246 246 247 250 252 252 252 250 247 245 242 241 241 241 242 243 243 244 246 248 249 251 251 253 255 256 257 260 263 267 272 277 281 286 293 299 301 302 303 304 302 300 297 295 296 298 300 302 304 306 306 302 299 300 303 305 303 300 300 305 311 313 315 318 319 319 321 325 329 333 336 336 337 337 335 335 335 335 333 328 320
249 248 248 248 249 250 251 253 254 253 253 251 250 249 246 244 243 242 243 244 245 246 248 250 251 251 252 254 256 256 256 258 261 265 269 273 276 281 288 293 296 298 300 302 301 298 295 294 295 296 297 300 303 301 299 299 301 302 303 301 297 296 300 304 308 310 312 315 316 317 322 326 331 336 338 338 338 337 335 336 338 339 337 332 325
247 248 249 250 251 252 253 253 254 253 253 253 252 251 249 247 246 245 246 247 248 249 250 252 253 254 255 256 257 257 257 258 261 263 266 270 274 278 283 287 291 294 297 300 300 298 294 293 293 294 297 298 296 293 297 301 301 300 299 297 295 296 300 303 304 306 309 312 313 317 322 328 332 336 338 338 338 337 336 338 340 341 339 333 329
245 247 249 251 252 254 254 254 254 254 253 254 253 253 252 251 250 249 249 249 250 251 252 254 256 257 258 258 258 258 257 258 260 262 265 267 270 275 279 282 286 289 293 297 299 296 294 292 291 293 293 290 288 292 298 299 296 296 295 294 294 296 298 299 301 304 307 309 312 318 323 329 334 336 335 337 338 338 338 340 341 342 340 336 333
245 249 251 253 254 254 254 254 254 254 254 254 255 255 255 255 254 253 253 253 253 254 255 257 259 260 261 261 261 259 257 257 260 262 264 266 269 273 276 279 282 285 288 291 293 291 289 288 287 286 284 283 286 292 296 295 294 295 294 293 293 293 294 296 299 301 304 308 312 318 324 329 333 334 333 334 337 341 341 341 342 344 343 339 337
252 255 257 259 259 259 259 258 257 256 255 255 255 255 255 255 255 254 255 255 256 257 258 259 260 261 262 263 262 260 258 259 261 262 264 267 269 271 274 277 281 284 286 287 288 285 283 281 278 276 276 279 284 288 292 295 296 296 293 291 289 289 290 293 296 300 303 307 312 316 322 328 332 333 332 333 337 342 343 342 343 345 345 342 341
258 259 261 263 263 264 265 264 263 263 262 261 260 259 258 258 257 258 258 259 259 260 261 262 263 264 265 266 264 263 262 262 264 265 266 267 268 269 273 277 281 283 285 286 285 281 278 276 273 272 274 278 282 286 290 293 292 291 290 288 285 285 287 290 294 298 301 305 309 314 319 325 329 331 331 334 338 340 340 341 343 344 345 345 344
259 261 261 263 264 265 266 267 267 267 266 265 265 263 262 261 261 261 262 261 261 262 263 264 265 266 267 266 265 263 263 264 265 266 266 266 268 271 275 277 280 282 283 281 279 275 273 273 273 277 281 284 287 292 294 290 287 286 286 284 282 282 284 287 290 294 297 301 306 312 317 322 326 329 331 334 337 339 339 340 341 342 344 345 346
259 261 263 266 268 269 271 271 271 271 270 269 268 267 265 264 263 263 263 262 263 263 263 264 265 264 263 263 262 261 262 264 265 265 266 268 271 273 275 277 279 281 279 277 275 274 274 276 279 282 286 288 290 294 296 291 287 285 283 281 279 280 282 285 288 290 294 299 304 310 315 319 323 326 330 332 334 336 337 338 339 341 343 344 345
259 262 266 269 271 272 273 273 273 273 272 272 271 270 268 267 267 267 266 266 265 265 265 265 265 264 263 263 262 261 262 263 265 266 268 271 272 273 276 279 280 281 280 279 278 277 276 277 280 282 285 286 288 292 293 289 286 285 283 280 277 278 281 284 287 289 293 297 301 307 312 316 320 324 328 330 332 334 335 336 338 339 341 343 344
260 263 267 270 271 273 273 273 273 273 272 271 271 271 270 269 269 268 268 268 268 267 266 266 265 265 264 263 261 260 261 263 266 268 270 271 273 275 278 279 279 282 281 274 268 267 268 272 277 281 282 282 285 289 288 284 283 283 282 280 277 277 280 284 286 289 292 296 300 305 309 313 317 321 323 326 329 331 332 334 336 337 339 340 342
262 265 269 272 273 274 274 274 274 273 273 272 272 271 271 270 270 270 269 268 268 267 266 265 264 263 262 262 262 261 260 261 264 267 270 272 275 277 278 279 278 274 265 256 255 258 263 269 274 278 279 280 284 286 284 280 280 280 280 279 278 276 278 282 286 289 292 295 299 303 307 311 314 317 320 324 327 329 331 333 334 335 336 338 340
265 269 273 274 275 275 276 277 277 276 275 274 273 271 270 270 271 271 269 268 268 268 267 265 262 260 260 260 261 262 263 263 264 267 270 273 276 278 280 281 278 269 258 254 257 261 266 271 274 276 277 280 284 285 282 279 278 277 277 277 277 277 278 281 285 288 290 293 297 300 304 307 312 315 318 321 324 326 329 330 331 333 335 337 339
271 274 276 277 277 277 277 278 278 278 277 276 274 272 271 271 270 270 270 269 268 268 267 265 262 259 257 257 258 260 263 266 269 270 271 272 273 274 274 273 272 270 266 263 263 265 268 271 273 274 276 279 283 284 281 279 276 275 275 275 275 276 278 280 283 287 289 292 295 298 302 305 310 313 315 318 321 324 326 328 329 331 334 336 337
275 277 277 277 277 277 277 278 278 278 277 276 273 271 270 270 270 269 269 268 266 265 264 262 259 257 256 257 258 260 262 265 267 268 269 269 269 269 268 268 269 271 271 271 271 271 271 271 270 271 274 279 282 281 279 277 274 273 273 274 274 275 277 279 282 285 288 291 294 297 300 304 307 310 312 314 318 321 323 326 326 328 332 334 334
276 276 276 276 276 276 277 277 278 277 277 275 273 272 271 271 271 270 268 267 266 264 263 261 259 257 257 258 260 262 263 265 267 269 270 271 270 269 269 270 272 273 273 274 276 276 276 275 273 273 275 279 280 278 275 273 272 272 272 273 274 275 277 279 282 285 287 290 293 296 299 301 304 307 309 311 314 317 320 322 324 326 329 331 331
277 277 277 277 278 278 278 278 278 277 277 276 275 274 273 272 271 270 268 267 265 264 263 261 259 258 258 259 261 263 265 268 271 273 274 274 272 271 270 271 272 273 274 275 277 278 279 278 277 276 277 278 277 275 272 270 270 270 271 272 273 275 277 279 281 284 287 289 292 294 296 298 301 304 306 308 311 314 317 319 323 324 326 327 329
279 279 279 279 280 280 279 279 278 277 277 276 275 275 274 272 272 271 269 267 266 264 262 261 260 260 261 262 264 267 270 272 273 275 276 276 275 275 274 274 274 274 276 278 279 280 280 279 278 277 276 275 273 271 271 270 269 268 270 272 273 275 276 278 280 282 285 288 290 292 294 296 299 301 303 305 308 312 315 318 322 323 323 325 327
280 281 280 280 280 279 278 278 277 276 276 276 275 275 274 273 272 271 268 266 265 263 261 261 261 263 265 267 269 272 274 275 275 276 277 277 278 278 278 279 280 280 280 281 280 279 279 278 277 275 274 272 271 271 271 270 268 268 269 272 274 275 276 277 280 282 284 286 288 290 292 295 297 298 300 301 304 309 313 316 319 320 321 322 324
282 282 281 280 279 277 276 276 275 274 274 274 274 274 275 273 271 269 266 263 262 262 263 265 267 269 270 272 274 276 277 278 279 278 278 279 280 281 283 284 285 285 284 283 281 280 279 278 277 276 274 273 272 272 272 269 268 269 271 273 275 276 277 278 281 283 285 286 287 289 291 293 295 296 297 298 302 306 311 313 314 316 318 320 323
282 281 280 279 278 277 275 274 273 271 270 271 271 272 272 270 268 265 263 263 264 266 268 270 272 273 275 276 277 277 278 280 283 284 286 289 291 293 294 293 291 289 288 286 284 282 280 279 279 278 277 276 275 274 272 271 271 272 273 274 275 276 278 280 282 284 285 285 286 288 290 292 293 294 295 296 300 303 307 309 311 313 315 318 323
282 282 281 280 279 277 274 271 269 267 266 266 266 267 267 266 265 265 265 267 269 271 272 273 274 275 275 276 276 277 279 283 288 293 298 301 303 303 301 296 292 291 290 289 287 285 282 281 281 280 279 278 278 277 275 274 273 273 273 274 275 276 278 280 283 284 285 285 286 287 289 290 291 291 293 295 298 302 305 308 309 311 313 318 324
282 282 281 281 279 275 271 267 264 261 260 260 261 264 265 266 266 268 269 270 271 272 273 273 274 275 275 276 277 280 283 287 291 296 298 299 300 300 298 295 293 293 293 292 290 287 285 284 284 282 281 280 280 278 277 275 274 273 274 275 276 277 279 282 284 284 284 284 286 287 288 288 288 289 291 294 297 300 304 305 306 308 312 318 326
279 278 277 276 273 270 268 266 264 263 263 263 265 267 268 269 269 270 271 271 272 273 274 274 275 276 276 277 281 285 288 290 291 291 289 288 290 292 293 295 294 294 294 292 289 287 286 286 285 284 283 282 280 278 276 275 275 275 276 277 278 280 282 284 284 283 284 285 287 287 287 287 287 289 291 293 296 299 301 303 304 306 310 316 326
275 273 272 270 269 269 269 269 270 271 271 271 270 270 270 270 271 272 272 273 273 274 274 275 275 276 278 282 285 287 287 287 285 283 281 282 284 286 289 290 290 290 290 289 288 288 288 287 287 285 284 282 280 278 277 277 277 277 278 279 280 282 283 283 282 282 283 285 286 286 287 288 289 291 291 293 295 297 298 299 300 301 305 313 324
275 274 273 273 274 275 275 275 276 276 275 274 274 273 273 273 274 273 274 274 274 273 273 273 275 278 280 282 281 281 280 280 279 279 280 283 285 286 287 287 288 288 288 289 290 291 290 289 288 287 286 284 282 280 279 278 278 278 278 279 280 281 281 280 280 281 283 284 284 286 288 290 292 293 294 294 295 296 295 295 295 297 300 308 319
280 279 279 279 278 277 277 277 276 276 275 275 275 275 275 274 274 273 272 271 271 270 271 271 272 273 273 272 272 273 273 275 277 280 283 285 287 288 288 288 289 289 289 290 291 291 290 289 289 288 287 287 285 283 282 280 279 278 279 279 279 280 280 280 280 281 282 283 284 285 287 289 292 295 296 296 295 294 292 291 290 292 295 301 312
285 284 283 282 280 279 279 278 278 277 277 277 276 275 274 273 271 269 268 267 267 267 266 265 265 266 266 266 268 270 273 276 280 284 286 287 288 288 288 289 291 291 292 292 291 289 289 290 289 289 289 288 286 285 284 282 281 281 280 280 279 280 280 280 281 282 282 283 283 284 285 288 291 295 296 296 294 291 290 289 288 288 291 295 302
285 284 282 281 280 279 279 278 277 276 276 274 273 272 270 268 266 264 263 263 263 262 261 261 262 263 264 266 267 270 274 278 281 283 285 287 287 287 288 290 291 292 292 292 292 290 290 290 289 289 289 288 287 287 286 284 283 282 281 280 280 281 281 282 284 284 284 284 283 283 284 287 289 292 293 294 292 289 288 287 286 285 285 287 292
283 281 280 279 277 277 276 275 274 273 271 270 269 268 265 263 262 262 261 261 260 259 259 260 261 262 265 267 270 273 276 279 281 284 285 285 285 286 288 289 290 291 292 292 292 292 291 289 289 289 289 289 288 288 287 286 285 284 283 283 284 284 285 286 286 286 285 285 284 284 286 288 290 291 292 292 290 289 287 286 284 282 280 280 284